This is the latest recevied weather packets stored in our database for station/object N1ORT. If no packets are shown the sender has not sent any weather packets the latest 10 day(s).
| Time | Temp. | Humidity | Pressure | Rain* | Wind** | Luminosity | Snow |
|---|---|---|---|---|---|---|---|
| 1788625442 | 21.11° C | 79% | 1008.9 hPa | 0 mm | - | 254 W/m² | - |
| 1788625137 | 21.11° C | 77% | 1009.2 hPa | 0 mm | - | 267 W/m² | - |
| 1788624836 | 21.11° C | 79% | 1009.1 hPa | 0 mm | - | 316 W/m² | - |
| 1788624535 | 21.11° C | 80% | 1009.2 hPa | 0 mm | - | 322 W/m² | - |
| 1788624229 | 21.11° C | 80% | 1009.2 hPa | 0 mm | - | 313 W/m² | - |
| 1788623929 | 21.11° C | 80% | 1009.2 hPa | 0 mm | - | 294 W/m² | - |
| 1788623623 | 20.56° C | 82% | 1009.2 hPa | 0 mm | - | 291 W/m² | - |
| 1788623322 | 20.56° C | 81% | 1009.2 hPa | 0 mm | - | 226 W/m² | - |
| 1788623018 | 20.56° C | 80% | 1009.1 hPa | 0 mm | - | 263 W/m² | - |
| 1788622713 | 21.11° C | 81% | 1009 hPa | 0 mm | - | 268 W/m² | - |
| 1788622438 | 21.11° C | 79% | 1009.4 hPa | 0 mm | - | 233 W/m² | - |
| 1788622109 | 21.11° C | 79% | 1009.1 hPa | 0 mm | - | 326 W/m² | - |
| 1788621808 | 20.56° C | 79% | 1009.2 hPa | 0 mm | - | 246 W/m² | - |
| 1788621504 | 20.56° C | 79% | 1009 hPa | 0 mm | - | 274 W/m² | - |
| 1788621199 | 21.11° C | 79% | 1009.3 hPa | 0 mm | - | 292 W/m² | - |
| 1788620899 | 21.11° C | 80% | 1009.1 hPa | 0 mm | - | 343 W/m² | - |
| 1788620593 | 20.56° C | 81% | 1009.1 hPa | 0 mm | - | 340 W/m² | - |
| 1788620290 | 20.56° C | 82% | 1009.2 hPa | 0 mm | - | 246 W/m² | - |
| 1788619985 | 20.56° C | 81% | 1009.3 hPa | 0 mm | - | 232 W/m² | - |
| 1788619683 | 20.56° C | 81% | 1009.4 hPa | 0 mm | - | 197 W/m² | - |
| 1788619380 | 20.56° C | 83% | 1009.2 hPa | 0 mm | - | 251 W/m² | - |
| 1788619078 | 20° C | 82% | 1009.1 hPa | 0 mm | - | 231 W/m² | - |
| 1788618773 | 20.56° C | 83% | 1009 hPa | 0 mm | - | 240 W/m² | - |
| 1788618471 | 20.56° C | 82% | 1009.3 hPa | 0 mm | - | 279 W/m² | - |
| 1788618160 | 20.56° C | 82% | 1009.1 hPa | 0 mm | - | 239 W/m² | - |
* Rain latest hour (hover to see other rain measurements)
** Current wind speed in m/s (hover to see current wind gust speed)